When you browse on this site, cookies collect data to enhance your experience and personalize the content and advertising you see.
Visit our Privacy Policy to learn more. By continuing to use the site, you agree to this use of cookies and data.
  • In Lithuania
  • List of Countries
  • For 7 days
  • Water Temperature
  • Satellite Maps
  • Weather Map
  • Weather Widgets
  • user-avatar
    Login

    Hourly Weather Kolesovka

    Today, 26 March, Tuesday

    Time Temperature Precipitation Wind Pressure Humidity
    00:00 -5°C° 0 mm 3 mps 742 mmHg 87%
    01:00 -4°C° 0 mm 3 mps 741 mmHg 87%
    02:00 -4°C° 0 mm 3 mps 741 mmHg 86%
    03:00 -2°C° 0 mm 3 mps 741 mmHg 83%
    04:00 -2°C° 0 mm 3 mps 740 mmHg 84%
    05:00 -2°C° 0 mm 3 mps 740 mmHg 86%
    06:00 -2°C° 0 mm 2 mps 740 mmHg 87%
    07:00 -2°C° 0.2 mm 2 mps 740 mmHg 90%
    08:00 -1°C° 0.2 mm 2 mps 739 mmHg 93%
    09:00 -1°C° 0.2 mm 2 mps 739 mmHg 96%
    10:00 +1°C° 0 mm 2 mps 739 mmHg 97%
    11:00 +1°C° 0 mm 2 mps 739 mmHg 98%
    12:00 +1°C° 0 mm 2 mps 739 mmHg 100%
    13:00 0°C° 0.1 mm 3 mps 739 mmHg 99%
    14:00 0°C° 0.1 mm 3 mps 739 mmHg 99%
    15:00 0°C° 0.1 mm 3 mps 739 mmHg 99%
    16:00 -1°C° 0 mm 4 mps 739 mmHg 99%
    17:00 -1°C° 0 mm 4 mps 740 mmHg 99%
    18:00 -2°C° 0 mm 4 mps 740 mmHg 98%
    19:00 -2°C° 0 mm 4 mps 740 mmHg 97%
    20:00 -2°C° 0 mm 4 mps 741 mmHg 96%
    21:00 -3°C° 0 mm 4 mps 741 mmHg 95%
    22:00 -2°C° 0 mm 3 mps 741 mmHg 95%
    23:00 -4°C° 0 mm 3 mps 742 mmHg 94%

    Tomorrow, 27 March, Wednesday

    Time Temperature Precipitation Wind Pressure Humidity
    00:00 -4°C° 0 mm 2 mps 742 mmHg 94%
    01:00 -4°C° 0 mm 2 mps 742 mmHg 92%
    02:00 -5°C° 0 mm 2 mps 743 mmHg 91%
    03:00 -6°C° 0 mm 2 mps 743 mmHg 90%
    04:00 -6°C° 0 mm 2 mps 743 mmHg 89%
    05:00 -7°C° 0 mm 2 mps 743 mmHg 89%
    06:00 -7°C° 0 mm 2 mps 744 mmHg 88%
    07:00 -6°C° 0 mm 2 mps 744 mmHg 88%
    08:00 -5°C° 0 mm 2 mps 745 mmHg 88%
    09:00 -5°C° 0 mm 2 mps 745 mmHg 88%
    10:00 -4°C° 0 mm 2 mps 745 mmHg 89%
    11:00 -3°C° 0 mm 2 mps 746 mmHg 89%
    12:00 +1°C° 0 mm 1 mps 746 mmHg 90%
    13:00 -1°C° 0 mm 2 mps 746 mmHg 93%
    14:00 -1°C° 0 mm 2 mps 747 mmHg 96%
    15:00 -1°C° 0 mm 2 mps 747 mmHg 98%
    16:00 -1°C° 0 mm 2 mps 747 mmHg 96%
    17:00 -2°C° 0 mm 2 mps 747 mmHg 93%
    18:00 -2°C° 0 mm 2 mps 747 mmHg 90%
    19:00 -3°C° 0 mm 2 mps 748 mmHg 90%
    20:00 -4°C° 0 mm 2 mps 748 mmHg 89%
    21:00 -6°C° 0 mm 3 mps 749 mmHg 88%
    22:00 -6°C° 0 mm 3 mps 749 mmHg 88%
    23:00 -7°C° 0 mm 3 mps 749 mmHg 89%

    Day after tomorrow, 28 March, Thursday

    Time Temperature Precipitation Wind Pressure Humidity
    00:00 -7°C° 0 mm 3 mps 749 mmHg 89%
    01:00 -8°C° 0 mm 3 mps 749 mmHg 90%
    02:00 -8°C° 0 mm 3 mps 749 mmHg 92%
    03:00 -8°C° 0 mm 3 mps 750 mmHg 93%
    04:00 -9°C° 0 mm 3 mps 750 mmHg 93%
    05:00 -9°C° 0 mm 3 mps 750 mmHg 93%
    06:00 -9°C° 0 mm 3 mps 750 mmHg 94%
    07:00 -9°C° 0 mm 4 mps 751 mmHg 93%
    08:00 -8°C° 0 mm 5 mps 751 mmHg 92%
    09:00 -7°C° 0 mm 5 mps 751 mmHg 92%
    10:00 -6°C° 0 mm 5 mps 752 mmHg 91%
    11:00 -5°C° 0 mm 5 mps 752 mmHg 90%
    12:00 -4°C° 0 mm 5 mps 752 mmHg 89%
    13:00 -4°C° 0 mm 5 mps 752 mmHg 87%
    14:00 -4°C° 0 mm 5 mps 752 mmHg 85%
    15:00 -2°C° 0 mm 5 mps 752 mmHg 83%
    16:00 -4°C° 0 mm 5 mps 752 mmHg 84%
    17:00 -3°C° 0 mm 4 mps 752 mmHg 84%
    18:00 -4°C° 0 mm 3 mps 752 mmHg 85%
    19:00 -5°C° 0 mm 3 mps 752 mmHg 84%
    20:00 -6°C° 0 mm 3 mps 752 mmHg 84%
    21:00 -7°C° 0 mm 3 mps 752 mmHg 83%
    22:00 -7°C° 0 mm 3 mps 752 mmHg 83%
    23:00 -7°C° 0 mm 3 mps 752 mmHg 83%

    29 March, Friday

    Time Temperature Precipitation Wind Pressure Humidity
    00:00 -7°C° 0 mm 3 mps 751 mmHg 83%
    01:00 -6°C° 0 mm 3 mps 751 mmHg 84%
    02:00 -6°C° 0 mm 3 mps 751 mmHg 85%
    03:00 -6°C° 0 mm 3 mps 750 mmHg 86%
    04:00 -5°C° 0 mm 4 mps 750 mmHg 88%
    05:00 -5°C° 0 mm 4 mps 749 mmHg 91%
    06:00 -5°C° 0 mm 4 mps 749 mmHg 93%
    07:00 -3°C° 0.3 mm 4 mps 748 mmHg 94%
    08:00 -2°C° 0.3 mm 5 mps 748 mmHg 94%
    09:00 -1°C° 0.3 mm 5 mps 748 mmHg 95%
    10:00 -1°C° 0.1 mm 5 mps 748 mmHg 96%
    11:00 -1°C° 0.1 mm 5 mps 748 mmHg 98%
    12:00 0°C° 0.1 mm 5 mps 748 mmHg 100%
    13:00 0°C° 0 mm 5 mps 747 mmHg 99%
    14:00 0°C° 0 mm 5 mps 747 mmHg 99%
    15:00 0°C° 0 mm 4 mps 747 mmHg 99%
    16:00 0°C° 0 mm 4 mps 747 mmHg 99%
    17:00 0°C° 0 mm 4 mps 747 mmHg 99%
    18:00 0°C° 0 mm 4 mps 747 mmHg 99%
    19:00 0°C° 0.1 mm 4 mps 747 mmHg 99%
    20:00 0°C° 0.1 mm 4 mps 747 mmHg 98%
    21:00 +1°C° 0.1 mm 3 mps 747 mmHg 97%
    22:00 0°C° 0.1 mm 4 mps 747 mmHg 97%
    23:00 0°C° 0.1 mm 4 mps 747 mmHg 96%

    30 March, Saturday

    Time Temperature Precipitation Wind Pressure Humidity
    00:00 0°C° 0.1 mm 4 mps 747 mmHg 95%
    01:00 0°C° 0 mm 4 mps 747 mmHg 94%
    02:00 0°C° 0 mm 4 mps 747 mmHg 92%
    03:00 0°C° 0 mm 4 mps 747 mmHg 91%
    04:00 0°C° 0 mm 4 mps 746 mmHg 92%
    05:00 -1°C° 0 mm 4 mps 746 mmHg 92%
    06:00 -1°C° 0 mm 4 mps 746 mmHg 93%
    07:00 -1°C° 0 mm 4 mps 746 mmHg 95%
    08:00 0°C° 0 mm 4 mps 746 mmHg 97%
    09:00 0°C° 0 mm 4 mps 746 mmHg 99%
    10:00 0°C° 0 mm 4 mps 746 mmHg 99%
    11:00 0°C° 0 mm 5 mps 746 mmHg 99%
    12:00 0°C° 0 mm 5 mps 746 mmHg 99%
    13:00 +1°C° 0 mm 5 mps 746 mmHg 99%
    14:00 +1°C° 0 mm 5 mps 746 mmHg 99%
    15:00 +1°C° 0 mm 5 mps 746 mmHg 100%
    16:00 +1°C° 0 mm 4 mps 746 mmHg 99%
    17:00 +1°C° 0 mm 4 mps 746 mmHg 99%
    18:00 +1°C° 0 mm 4 mps 746 mmHg 99%
    19:00 0°C° 0 mm 4 mps 746 mmHg 98%
    20:00 +1°C° 0 mm 3 mps 746 mmHg 97%
    21:00 +1°C° 0 mm 3 mps 746 mmHg 96%
    22:00 +1°C° 0 mm 3 mps 746 mmHg 92%
    23:00 +1°C° 0 mm 3 mps 746 mmHg 89%

    31 March, Sunday

    Time Temperature Precipitation Wind Pressure Humidity
    00:00 +2°C° 0 mm 3 mps 746 mmHg 85%
    01:00 +1°C° 0 mm 3 mps 746 mmHg 86%
    02:00 +1°C° 0 mm 3 mps 746 mmHg 86%
    03:00 +1°C° 0 mm 3 mps 746 mmHg 87%
    04:00 +1°C° 0 mm 3 mps 746 mmHg 87%
    05:00 +1°C° 0 mm 3 mps 746 mmHg 88%
    06:00 0°C° 0 mm 3 mps 746 mmHg 88%
    07:00 +1°C° 0 mm 3 mps 746 mmHg 91%
    08:00 +1°C° 0 mm 3 mps 746 mmHg 95%
    09:00 +1°C° 0 mm 3 mps 746 mmHg 99%
    10:00 +2°C° 0 mm 3 mps 746 mmHg 99%
    11:00 +2°C° 0 mm 3 mps 746 mmHg 99%
    12:00 +3°C° 0 mm 4 mps 746 mmHg 99%
    13:00 +3°C° 0 mm 4 mps 746 mmHg 98%
    14:00 +4°C° 0 mm 4 mps 745 mmHg 98%
    15:00 +4°C° 0 mm 3 mps 745 mmHg 97%
    16:00 +3°C° 0 mm 3 mps 745 mmHg 97%
    17:00 +3°C° 0 mm 3 mps 745 mmHg 97%
    18:00 +2°C° 0 mm 3 mps 745 mmHg 97%
    19:00 +2°C° 0 mm 3 mps 746 mmHg 94%
    20:00 +2°C° 0 mm 3 mps 746 mmHg 91%
    21:00 +2°C° 0 mm 3 mps 746 mmHg 87%
    22:00 +3°C° 0 mm 2 mps 746 mmHg 86%
    23:00 +3°C° 0 mm 2 mps 746 mmHg 84%
    Show more